Time,TemperatureF,DewpointF,PressureIn,WindDirection,WindDirectionDegrees,WindSpeedMPH,WindSpeedGustMPH,Humidity,HourlyPrecipIn,Conditions,Clouds,dailyrainin,SoftwareType,DateUTC
2013-03-31 00:00:00,41.0,37.0,-100.00,North,-999,1.0,1.0,85,-99.99,,,-99.99,,2013-03-31 07:00:00,
2013-03-31 02:02:00,39.0,37.0,-100.00,North,-999,1.0,1.0,92,-99.99,,,-99.99,,2013-03-31 09:02:00,
2013-03-31 03:00:00,37.0,36.0,-100.00,North,-999,1.0,1.0,96,-99.99,,,-99.99,,2013-03-31 10:00:00,
2013-03-31 03:03:00,38.0,37.0,-100.00,North,-999,1.0,1.0,96,-99.99,,,-99.99,,2013-03-31 10:03:00,
2013-03-31 04:00:00,37.0,37.0,-100.00,North,-999,1.0,2.0,100,-99.99,,,-99.99,,2013-03-31 11:00:00,
2013-03-31 06:00:00,36.0,36.0,-100.00,North,-999,1.0,3.0,100,-99.99,,,-99.99,,2013-03-31 13:00:00,
2013-03-31 06:02:00,35.0,35.0,-100.00,North,-999,1.0,2.0,100,-99.99,,,-99.99,,2013-03-31 13:02:00,
2013-03-31 07:00:00,35.0,35.0,-100.00,North,-999,1.0,2.0,100,-99.99,,,-99.99,,2013-03-31 14:00:00,
2013-03-31 08:00:00,40.0,37.0,-100.00,North,-999,5.0,6.0,88,-99.99,,,-99.99,,2013-03-31 15:00:00,
2013-03-31 09:00:00,45.0,35.0,-100.00,North,-999,3.0,6.0,67,-99.99,,,-99.99,,2013-03-31 16:00:00,
2013-03-31 10:00:00,55.0,36.0,-100.00,North,-999,2.0,6.0,48,-99.99,,,-99.99,,2013-03-31 17:00:00,
2013-03-31 11:00:00,57.0,35.0,-100.00,North,-999,3.0,6.0,43,-99.99,,,-99.99,,2013-03-31 18:00:00,
2013-03-31 13:00:00,62.0,34.0,-100.00,North,-999,5.0,7.0,34,-99.99,,,-99.99,,2013-03-31 20:00:00,
2013-03-31 13:02:00,62.0,36.0,-100.00,North,-999,1.0,5.0,37,-99.99,,,-99.99,,2013-03-31 20:02:00,
2013-03-31 14:00:00,63.0,33.0,-100.00,North,-999,5.0,7.0,32,-99.99,,,-99.99,,2013-03-31 21:00:00,
2013-03-31 15:00:00,65.0,34.0,-100.00,North,-999,3.0,6.0,31,-99.99,,,-99.99,,2013-03-31 22:00:00,
2013-03-31 16:00:00,65.0,32.0,-100.00,North,-999,1.0,5.0,29,-99.99,,,-99.99,,2013-03-31 23:00:00,
2013-03-31 17:00:00,65.0,32.0,-100.00,North,-999,2.0,6.0,29,-99.99,,,-99.99,,2013-04-01 00:00:00,
2013-03-31 18:00:00,64.0,32.0,-100.00,North,-999,2.0,5.0,30,-99.99,,,-99.99,,2013-04-01 01:00:00,
2013-03-31 20:00:00,54.0,33.0,-100.00,North,-999,0.0,0.0,44,-99.99,,,-99.99,,2013-04-01 03:00:00,
2013-03-31 20:02:00,57.0,33.0,-100.00,North,-999,0.0,0.0,40,-99.99,,,-99.99,,2013-04-01 03:02:00,
2013-03-31 20:12:00,57.0,33.0,-100.00,North,-999,0.0,0.0,40,-99.99,,,-99.99,,2013-04-01 03:12:00,
2013-03-31 21:00:00,50.0,36.0,-100.00,North,-999,1.0,1.0,58,-99.99,,,-99.99,,2013-04-01 04:00:00,
2013-03-31 22:00:00,46.0,38.0,-100.00,North,-999,1.0,2.0,73,-99.99,,,-99.99,,2013-04-01 05:00:00,
2013-03-31 23:00:00,46.0,38.0,-100.00,North,-999,2.0,3.0,73,-99.99,,,-99.99,,2013-04-01 06:00:00,